Tracking 35274 objects as of 10-Sep-2026
HD Live streaming from Space Station
objects crossing your sky now

SPACEBEE-52


SPACEBEE-52 is no longer on orbit


NORAD ID: 47425
Int'l Code: 2021-006N
Launch date: January 24, 2021
Source: United States (US)
Launch site: AIR FORCE EASTERN TEST RANGE (AFETR)
Decay date: 2023-03-06
Your satellite tracking list
Your tracking list is empty




NASA's NSSDC Master Catalog

Two Line Element Set (TLE):
1 47425U 21006N   23059.02899342  .12464569  24511-5  36884-2 0  9993
2 47425  97.3752 129.8405 0011461 279.8706  80.1293 16.27026894116789
Source of the keplerian elements: AFSPC